カタログに戻る

DIRECTV 4S

運用中通信GEO
NORAD 26985·PAYLOAD·🇺🇸 United States

打ち上げ Nov 27, 2001 から Guiana Space Centre

Loading…

TLE

最新Source: Space-Track

元期: Sep 14, 2026, 13:03 UTC

1 26985U 01052A   26257.54437058 -.00000102  00000-0  00000-0 0  9990
2 26985   6.4850  70.6013 0004933 116.3729 187.7576  0.99266758 51953

AllMySatでDIRECTV 4Sをリアルタイム追跡

Download on the App Store